SCP
0 0 0 0 0 0 0 0 0 0 0 0 0 0 0 0 0 0 0 0 0 0 0 0 0 0 0 0 0 0 0 0 0 0 0 0 0 0 0 0 0 0 0 0
0 0 0 0 0 0 0 0 0 0 0 0 0 0 0 0 0 0 0 0 0 0 0 0 0 0 0 0 0 0 0 0 0 0 0 0 0 0 0 0 0 0 0 0
0 0 0 0 0 0 0 0 0 0 0 0 0 0 0 0 0 0 0 0 0 0 0 0 0 0 0 0 0 0 0 0 0 0 0 0 0 0 0 0 0 0 0 0
0 0 0 0 0 0 0 0 0 0 0 0 0 -0 0 0 0 0 0 0 0 0 0 0 0 0 0 0 0 0 0 0 0 0 0 0 0 0 0 0 0 0 0 0
0 0 0 0 0 0 0 0 0 0 0 0 0 0 0 0 0 0 0 0 0 0 0 0 0 0 0 0 0 0 0 0 0 0 0 0 0 0 0 0 0 0 0 0
0 0 0 0 0 0 0 0 0 0 0 0 0 0 0 0 0 0 0 0 0 0 0 0 0 0 0 0 0 0 0 0 0 0 0 0 0 0 0 0 0 0 0 0
0 0 0 0 0 0 0 0 0 0 0 0 0 0 0 0 0 0 0 0 0 0 0 0 0 0 0 0 0 0 0 0 0 0 0 0 0 0 0 0 0 0 0 0
0 0 0 0 0 0 0 0 0 0 0 0 0 0 0 0 0 0 0 0 -0 0 0 0 0 0 0 0 0 0 0 0 0 0 0 0 0 0 0 0 0 0 0 0
0 0 0 0 0 0 0 0 0 0 0 0 0 0 0 0 0 0 0 0 0 0 0 0 0 0 0 0 0 0 0 0 0 0 0 0 0 0 0 0 0 0 0 0
0 0 0 0 0 0 0 0 0 0 0 0 0 0 0 0 0 0 -0 0 0 0 0 0 0 0 0 0 0 0 0 0 0 0 0 0 0 0 0 0 0 0 0 0
0 0 0 0 0 0 0 0 0 0 0 0 0 0 0 0 0 0 0 0 0 0 0 0 0 0 -0 0 0 0 0 0 0 0 0 0 0 0 0 0 0 0 0 0
0 0 0 0 0 0 0 0 0 0 0 0 0 0 0 0 0 0 0 0 0 0 0 0 0 0 -0 -0 0 0 0 0 0 0 0 0 0 0 0 0 0 0 0 0
0 0 0 0 0 0 0 0 0 0 0 0 0 0 0 0 0 0 0 0 0 0 0 0 0 0 0 -0 0 0 0 0 0 0 0 0 0 0 0 0 0 0 0 0
0 0 0 0 0 0 0 0 0 0 0 0 0 0 0 0 0 0 0 0 0 0 0 0 0 0 0 0 0 0 0 0 0 0 0 0 0 0 0 0 0 0 0 0
0 0 0 0 0 0 0 0 0 0 0 0 0 0 -0 0 0 0 0 0 0 0 0 0 0 0 0 0 0 0 0 0 0 0 0 0 0 0 0 0 0 0 0 0
0 0 0 0 0 0 0 0 0 0 0 0 0 0 0 0 0 0 0 0 0 0 0 0 0 0 0 0 0 0 0 0 0 0 0 0 0 0 0 0 0 0 0 0
0 0 0 0 0 0 0 0 0 0 0 0 0 0 0 0 0 0 0 0 0 0 0 0 0 0 0 0 0 0 0 0 0 0 0 0 0 0 0 0 0 0 0 0
0 0 0 0 0 0 0 0 0 0 0 0 0 0 0 0 0 0 0 0 0 0 0 0 0 0 0 0 0 0 0 0 0 0 0 0 0 0 0 0 0 0 0 0
0 0 0 0 0 0 0 0 0 0 0 0 0 0 0 0 0 0 0 0 0 0 0 0 0 0 0 0 0 0 0 0 0 0 0 0 0 0 0 0 0 0 0 0
0 0 0 0 0 0 0 0 0 0 0 0 0 0 0 0 0 0 0 0 0 0 0 0 0 0 0 0 0 0 0 0 0 0 0 0 0 0 0 0 0 0 0 0
0 0 0 0 0 0 0 0 0 0 0 0 0 0 0 0 0 0 0 0 0 0 0 0 0 0 0 0 0 0 0 0 0 0 0 0 0 0 0 0 0 0 0 0
0 0 0 0 0 0 0 0 0 0 0 0 0 0 0 0 0 0 0 0 0 0 0 0 0 0 0 0 0 0 0 0 0 0 0 0 0 0 0 0 0 0 0 0
0 0 0 0 0 0 0 0 0 0 0 0 0 0 0 0 0 0 0 0 0 0 0 0 0 0 0 0 0 0 0 0 0 0 0 0 0 0 0 0 0 0 0 0
0 0 0 0 0 0 0 0 0 0 0 0 0 0 0 0 0 0 0 0 0 0 0 0 0 0 0 0 0 0 0 0 0 0 0 0 0 0 0 0 0 0 0 0
-0 -0 -0 -0 -0 0 0 0 0 0 0 0 0 0 0 0 0 0 0 0 0 0 0 0 0 0 0 0 0 0 0 0 0 0 0 0 0 0 0 0 0 0 0 0
0 0 0 -0 -0 -0 -0 0 0 0 0 0 0 0 0 0 0 0 0 0 0 0 0 0 0 0 0 0 0 0 0 0 0 0 0 0 0 0 0 0 0 0 0 0
Wind_Speed_500mb
4 8 14 21 11 7 11 7 8 7 6 6 14 20 23 55 40 51 57 60 65 67 57 58 63 65 67 69 69 68 67 64 62 59 58 57 60 61 56 53 51 54 55 53
9 13 12 12 11 8 6 4 11 10 5 8 13 30 24 29 50 58 71 76 79 76 73 70 64 69 74 75 74 73 71 69 66 63 59 61 61 63 54 54 54 56 54 53
14 7 13 14 9 11 8 11 9 13 6 6 12 17 13 13 41 60 76 84 83 85 86 81 75 71 73 79 79 78 75 73 72 69 64 64 62 63 64 66 64 62 59 59
10 6 10 8 9 14 8 15 8 4 6 8 4 11 17 15 17 16 54 59 71 79 81 82 82 76 77 79 80 81 80 79 77 75 72 71 72 77 76 69 63 63 61 63
15 17 11 8 13 14 13 11 13 7 6 7 4 6 16 5 15 22 42 70 73 72 64 57 57 60 59 67 75 83 86 86 85 79 76 73 73 73 67 64 65 69 62 62
7 3 12 14 5 4 19 12 12 8 4 7 17 14 9 11 14 12 22 48 44 37 33 31 31 36 40 47 58 70 85 91 89 83 79 77 75 76 72 72 70 71 64 60
3 8 5 9 13 7 2 12 3 6 2 15 4 8 24 14 18 17 28 58 49 38 31 25 24 25 29 34 43 55 71 88 92 86 82 79 77 73 74 73 70 72 67 66
15 12 21 13 17 18 19 16 12 14 8 8 6 15 14 17 34 53 59 64 59 46 33 29 24 25 28 33 39 47 55 74 88 89 85 82 78 75 76 73 68 70 68 65
12 12 2 7 4 17 12 15 5 7 5 4 11 18 18 16 24 37 60 43 49 43 30 25 26 20 21 26 31 38 47 59 77 87 85 83 78 78 75 77 73 66 71 67
10 6 1 4 6 5 8 11 6 2 7 9 12 12 18 10 14 20 15 29 30 20 21 17 17 19 19 21 25 33 42 52 63 79 83 81 79 77 74 75 74 69 71 74
11 9 2 7 13 19 7 8 3 8 9 10 3 15 15 16 14 17 18 15 8 4 6 14 13 11 12 16 23 27 36 46 57 73 80 80 77 75 75 77 75 72 70 73
13 8 10 18 3 2 2 8 12 9 10 6 5 25 7 12 10 10 20 16 11 2 10 14 15 13 13 10 17 24 30 39 49 64 76 78 77 77 78 80 76 75 76 76
16 8 3 12 3 6 10 12 11 8 7 17 14 26 2 10 12 17 22 16 13 17 20 26 19 16 20 19 22 26 30 38 45 58 71 78 80 82 81 81 78 76 79 80
29 10 16 25 11 11 10 11 22 26 7 42 20 61 41 5 7 16 27 43 59 65 57 45 45 38 37 33 30 34 38 46 50 57 68 78 83 85 85 81 83 79 80 81
17 21 31 41 33 10 15 11 20 34 53 33 60 44 67 33 23 43 62 67 68 76 76 72 68 70 58 43 39 48 51 55 58 60 67 77 82 85 85 83 85 83 83 84
8 27 21 37 37 38 25 17 26 44 50 36 57 52 61 42 49 36 55 56 73 78 76 77 83 80 64 62 63 64 67 64 63 67 70 76 81 85 87 86 87 87 88 88
9 4 11 34 33 14 19 52 53 38 31 36 40 66 35 40 34 57 55 63 77 83 84 85 88 90 83 79 73 70 65 65 65 67 70 75 79 84 86 87 88 90 89 87
12 29 20 21 17 35 32 22 44 54 58 50 41 50 58 62 83 81 67 69 78 80 81 80 78 79 69 56 53 53 56 57 58 61 68 73 77 81 84 86 87 89 88 88
30 29 11 15 30 34 9 21 29 22 50 44 51 60 79 72 46 84 73 72 79 78 70 60 54 47 37 33 35 38 41 45 49 52 56 62 70 77 80 83 84 85 87 86
42 38 23 12 18 26 26 54 25 13 23 46 41 50 53 25 17 40 22 23 20 19 19 19 17 20 34 37 38 34 32 33 37 39 42 46 55 62 68 72 75 76 78 80
14 18 43 45 36 18 16 12 21 21 20 11 48 66 57 21 34 33 20 20 25 23 26 30 34 34 29 25 25 22 21 20 21 24 26 29 33 40 49 57 64 65 71 68
26 19 23 21 32 48 3 8 25 11 12 13 19 27 34 40 40 46 39 30 32 37 25 16 12 10 7 7 6 9 8 9 8 8 11 13 17 23 33 41 48 53 48 46
14 17 6 12 3 3 33 43 57 53 37 37 34 36 33 28 25 20 19 14 12 12 11 10 10 12 16 18 22 19 23 21 16 15 13 12 13 18 24 31 37 39 41 40
11 24 11 8 13 32 55 69 62 83 66 58 40 30 30 27 21 15 14 14 19 25 28 32 32 33 35 33 32 28 31 31 30 29 25 20 15 13 15 20 27 29 32 37
14 6 11 23 27 27 54 56 68 75 63 59 46 35 31 28 22 23 28 32 34 36 33 28 28 32 36 34 32 31 29 24 23 22 22 24 26 26 25 25 24 25 27 31
17 32 17 26 14 16 23 33 38 60 66 52 40 30 21 24 30 33 39 32 32 34 31 26 24 25 28 22 20 20 21 23 16 13 13 14 14 15 14 16 20 24 27 30
Wind_Direction_500mb
57 97 208 200 184 126 132 154 223 236 225 219 237 260 263 270 274 266 266 265 262 258 258 252 244 240 239 239 241 241 240 240 240 239 235 229 223 223 216 215 217 217 222 221
42 219 207 127 146 132 142 146 262 277 236 193 275 272 254 246 259 255 261 262 259 259 257 252 247 241 240 241 242 242 242 241 242 242 239 234 225 223 220 217 217 216 219 222
169 218 143 133 143 147 194 181 225 234 337 251 335 284 277 264 250 258 258 259 260 256 255 254 250 245 243 243 243 243 243 243 243 242 237 231 221 220 219 215 216 222 220 221
226 221 143 139 183 155 215 205 158 174 40 259 47 287 285 255 250 249 256 256 258 260 259 258 259 255 250 252 249 245 243 242 242 240 236 233 228 223 224 223 217 222 223 225
233 171 170 170 197 157 219 130 158 142 176 348 328 278 259 26 276 251 250 256 261 266 269 268 267 267 263 256 254 249 244 240 239 239 236 233 227 227 231 223 222 221 226 227
224 166 168 192 104 135 146 80 51 51 84 286 190 189 201 185 218 260 259 265 270 280 275 275 270 259 254 250 247 245 243 240 239 237 235 233 228 224 225 222 223 220 223 226
115 213 187 157 91 49 128 109 309 326 18 236 322 216 261 250 236 228 253 269 282 280 272 271 267 263 260 257 254 247 241 237 236 235 234 233 232 225 223 228 225 221 222 222
179 267 167 187 185 171 200 165 171 206 201 262 33 238 252 236 262 258 262 264 270 277 280 276 272 268 263 263 259 255 248 238 233 232 232 231 230 224 226 225 226 225 226 225
169 267 223 157 145 153 201 208 151 93 71 37 222 277 289 269 277 267 263 271 278 275 274 288 277 267 268 271 267 261 253 244 236 231 230 230 229 226 225 221 222 226 226 226
211 273 316 150 128 42 162 171 87 350 188 242 268 269 236 272 264 265 284 286 307 290 247 237 239 263 274 278 273 263 254 248 241 231 231 231 230 227 226 223 223 226 229 228
155 163 223 134 210 167 144 211 135 136 160 186 277 265 214 219 241 266 291 300 358 66 171 191 229 254 282 300 295 280 265 254 240 230 232 233 233 230 226 224 224 230 230 230
212 160 197 207 238 198 103 219 153 148 221 243 171 267 167 225 218 274 296 300 327 253 198 222 228 243 258 276 294 294 281 266 249 235 232 234 234 232 228 225 224 230 231 230
179 180 328 334 12 356 211 202 188 124 96 217 187 258 232 228 275 263 290 314 294 307 271 251 251 280 280 272 281 275 276 270 256 239 233 233 234 233 231 227 229 230 230 228
172 153 190 230 199 131 192 210 203 200 182 242 224 254 247 188 262 286 292 299 304 304 297 282 269 282 299 279 276 279 274 266 256 243 236 234 235 235 234 230 230 231 231 231
176 211 218 239 242 188 198 190 199 207 228 226 251 240 259 250 241 255 273 280 281 280 282 281 273 277 289 283 277 291 276 268 258 248 240 238 237 236 235 232 231 231 232 233
216 239 208 244 237 234 233 196 211 217 234 242 252 260 258 263 271 275 263 266 271 272 275 276 278 284 289 293 291 289 281 269 258 251 246 241 239 237 236 234 233 233 233 233
226 243 200 238 239 217 234 233 231 231 226 218 234 247 266 271 264 259 266 260 260 266 271 274 277 281 285 288 286 279 275 272 262 256 251 246 242 239 238 236 234 234 234 236
215 235 221 253 251 232 239 237 225 229 238 229 247 262 261 258 270 280 267 266 272 273 274 277 279 282 280 276 273 272 267 266 262 258 252 249 244 240 238 237 235 234 233 235
223 230 260 234 236 250 282 229 212 192 244 234 230 245 257 265 281 277 273 270 273 274 274 277 278 277 274 276 274 271 267 264 261 257 254 251 247 241 238 236 234 234 234 233
211 218 228 227 240 241 231 257 200 123 248 249 214 238 252 229 236 261 254 264 259 252 257 265 261 266 282 280 274 267 265 266 265 263 259 254 249 246 242 239 236 234 235 234
191 213 227 238 259 258 250 238 144 190 243 213 202 222 241 214 232 257 255 240 261 262 268 270 272 271 266 264 257 258 262 264 255 254 253 249 246 243 239 235 234 234 233 231
244 234 227 231 244 250 132 72 209 248 193 189 206 226 226 235 234 246 268 271 262 270 275 260 240 235 241 244 248 239 231 231 219 218 220 222 224 228 227 226 227 228 226 228
251 224 271 234 242 160 330 300 305 292 286 283 242 237 240 239 239 242 253 260 247 230 214 176 155 138 122 110 95 97 103 98 105 118 130 148 168 186 205 206 207 208 221 217
233 245 213 286 268 238 235 238 265 258 251 254 259 242 235 239 233 222 201 162 148 140 131 124 122 120 116 111 107 102 102 105 105 102 100 102 117 145 175 192 211 223 226 225
255 131 214 244 264 290 272 253 238 249 253 244 232 218 209 196 176 179 166 149 143 142 137 133 130 126 121 120 121 119 113 111 106 106 113 129 138 142 155 175 195 206 218 231
209 241 232 255 228 246 279 277 273 243 235 224 209 194 178 177 170 171 166 159 159 155 149 150 145 137 126 127 134 135 133 129 126 120 131 129 133 142 159 184 196 211 220 229
Wind_Speed_850mb
4 8 14 21 11 7 11 7 8 7 6 6 14 20 23 55 40 51 57 60 65 67 57 58 63 65 67 69 69 68 67 64 62 59 58 57 60 61 56 53 51 54 55 53
9 13 12 12 11 8 6 4 11 10 5 8 13 30 24 29 50 58 71 76 79 76 73 70 64 69 74 75 74 73 71 69 66 63 59 61 61 63 54 54 54 56 54 53
14 7 13 14 9 11 8 11 9 13 6 6 12 17 13 13 41 60 76 84 83 85 86 81 75 71 73 79 79 78 75 73 72 69 64 64 62 63 64 66 64 62 59 59
10 6 10 8 9 14 8 15 8 4 6 8 4 11 17 15 17 16 54 59 71 79 81 82 82 76 77 79 80 81 80 79 77 75 72 71 72 77 76 69 63 63 61 63
15 17 11 8 13 14 13 11 13 7 6 7 4 6 16 5 15 22 42 70 73 72 64 57 57 60 59 67 75 83 86 86 85 79 76 73 73 73 67 64 65 69 62 62
7 3 12 14 5 4 19 12 12 8 4 7 17 14 9 11 14 12 22 48 44 37 33 31 31 36 40 47 58 70 85 91 89 83 79 77 75 76 72 72 70 71 64 60
3 8 5 9 13 7 2 12 3 6 2 15 4 8 24 14 18 17 28 58 49 38 31 25 24 25 29 34 43 55 71 88 92 86 82 79 77 73 74 73 70 72 67 66
15 12 21 13 17 18 19 16 12 14 8 8 6 15 14 17 34 53 59 64 59 46 33 29 24 25 28 33 39 47 55 74 88 89 85 82 78 75 76 73 68 70 68 65
12 12 2 7 4 17 12 15 5 7 5 4 11 18 18 16 24 37 60 43 49 43 30 25 26 20 21 26 31 38 47 59 77 87 85 83 78 78 75 77 73 66 71 67
10 6 1 4 6 5 8 11 6 2 7 9 12 12 18 10 14 20 15 29 30 20 21 17 17 19 19 21 25 33 42 52 63 79 83 81 79 77 74 75 74 69 71 74
11 9 2 7 13 19 7 8 3 8 9 10 3 15 15 16 14 17 18 15 8 4 6 14 13 11 12 16 23 27 36 46 57 73 80 80 77 75 75 77 75 72 70 73
13 8 10 18 3 2 2 8 12 9 10 6 5 25 7 12 10 10 20 16 11 2 10 14 15 13 13 10 17 24 30 39 49 64 76 78 77 77 78 80 76 75 76 76
16 8 3 12 3 6 10 12 11 8 7 17 14 26 2 10 12 17 22 16 13 17 20 26 19 16 20 19 22 26 30 38 45 58 71 78 80 82 81 81 78 76 79 80
29 10 16 25 11 11 10 11 22 26 7 42 20 61 41 5 7 16 27 43 59 65 57 45 45 38 37 33 30 34 38 46 50 57 68 78 83 85 85 81 83 79 80 81
17 21 31 41 33 10 15 11 20 34 53 33 60 44 67 33 23 43 62 67 68 76 76 72 68 70 58 43 39 48 51 55 58 60 67 77 82 85 85 83 85 83 83 84
8 27 21 37 37 38 25 17 26 44 50 36 57 52 61 42 49 36 55 56 73 78 76 77 83 80 64 62 63 64 67 64 63 67 70 76 81 85 87 86 87 87 88 88
9 4 11 34 33 14 19 52 53 38 31 36 40 66 35 40 34 57 55 63 77 83 84 85 88 90 83 79 73 70 65 65 65 67 70 75 79 84 86 87 88 90 89 87
12 29 20 21 17 35 32 22 44 54 58 50 41 50 58 62 83 81 67 69 78 80 81 80 78 79 69 56 53 53 56 57 58 61 68 73 77 81 84 86 87 89 88 88
30 29 11 15 30 34 9 21 29 22 50 44 51 60 79 72 46 84 73 72 79 78 70 60 54 47 37 33 35 38 41 45 49 52 56 62 70 77 80 83 84 85 87 86
42 38 23 12 18 26 26 54 25 13 23 46 41 50 53 25 17 40 22 23 20 19 19 19 17 20 34 37 38 34 32 33 37 39 42 46 55 62 68 72 75 76 78 80
14 18 43 45 36 18 16 12 21 21 20 11 48 66 57 21 34 33 20 20 25 23 26 30 34 34 29 25 25 22 21 20 21 24 26 29 33 40 49 57 64 65 71 68
26 19 23 21 32 48 3 8 25 11 12 13 19 27 34 40 40 46 39 30 32 37 25 16 12 10 7 7 6 9 8 9 8 8 11 13 17 23 33 41 48 53 48 46
14 17 6 12 3 3 33 43 57 53 37 37 34 36 33 28 25 20 19 14 12 12 11 10 10 12 16 18 22 19 23 21 16 15 13 12 13 18 24 31 37 39 41 40
11 24 11 8 13 32 55 69 62 83 66 58 40 30 30 27 21 15 14 14 19 25 28 32 32 33 35 33 32 28 31 31 30 29 25 20 15 13 15 20 27 29 32 37
14 6 11 23 27 27 54 56 68 75 63 59 46 35 31 28 22 23 28 32 34 36 33 28 28 32 36 34 32 31 29 24 23 22 22 24 26 26 25 25 24 25 27 31
17 32 17 26 14 16 23 33 38 60 66 52 40 30 21 24 30 33 39 32 32 34 31 26 24 25 28 22 20 20 21 23 16 13 13 14 14 15 14 16 20 24 27 30
Wind_Direction_850mb
57 97 208 200 184 126 132 154 223 236 225 219 237 260 263 270 274 266 266 265 262 258 258 252 244 240 239 239 241 241 240 240 240 239 235 229 223 223 216 215 217 217 222 221
42 219 207 127 146 132 142 146 262 277 236 193 275 272 254 246 259 255 261 262 259 259 257 252 247 241 240 241 242 242 242 241 242 242 239 234 225 223 220 217 217 216 219 222
169 218 143 133 143 147 194 181 225 234 337 251 335 284 277 264 250 258 258 259 260 256 255 254 250 245 243 243 243 243 243 243 243 242 237 231 221 220 219 215 216 222 220 221
226 221 143 139 183 155 215 205 158 174 40 259 47 287 285 255 250 249 256 256 258 260 259 258 259 255 250 252 249 245 243 242 242 240 236 233 228 223 224 223 217 222 223 225
233 171 170 170 197 157 219 130 158 142 176 348 328 278 259 26 276 251 250 256 261 266 269 268 267 267 263 256 254 249 244 240 239 239 236 233 227 227 231 223 222 221 226 227
224 166 168 192 104 135 146 80 51 51 84 286 190 189 201 185 218 260 259 265 270 280 275 275 270 259 254 250 247 245 243 240 239 237 235 233 228 224 225 222 223 220 223 226
115 213 187 157 91 49 128 109 309 326 18 236 322 216 261 250 236 228 253 269 282 280 272 271 267 263 260 257 254 247 241 237 236 235 234 233 232 225 223 228 225 221 222 222
179 267 167 187 185 171 200 165 171 206 201 262 33 238 252 236 262 258 262 264 270 277 280 276 272 268 263 263 259 255 248 238 233 232 232 231 230 224 226 225 226 225 226 225
169 267 223 157 145 153 201 208 151 93 71 37 222 277 289 269 277 267 263 271 278 275 274 288 277 267 268 271 267 261 253 244 236 231 230 230 229 226 225 221 222 226 226 226
211 273 316 150 128 42 162 171 87 350 188 242 268 269 236 272 264 265 284 286 307 290 247 237 239 263 274 278 273 263 254 248 241 231 231 231 230 227 226 223 223 226 229 228
155 163 223 134 210 167 144 211 135 136 160 186 277 265 214 219 241 266 291 300 358 66 171 191 229 254 282 300 295 280 265 254 240 230 232 233 233 230 226 224 224 230 230 230
212 160 197 207 238 198 103 219 153 148 221 243 171 267 167 225 218 274 296 300 327 253 198 222 228 243 258 276 294 294 281 266 249 235 232 234 234 232 228 225 224 230 231 230
179 180 328 334 12 356 211 202 188 124 96 217 187 258 232 228 275 263 290 314 294 307 271 251 251 280 280 272 281 275 276 270 256 239 233 233 234 233 231 227 229 230 230 228
172 153 190 230 199 131 192 210 203 200 182 242 224 254 247 188 262 286 292 299 304 304 297 282 269 282 299 279 276 279 274 266 256 243 236 234 235 235 234 230 230 231 231 231
176 211 218 239 242 188 198 190 199 207 228 226 251 240 259 250 241 255 273 280 281 280 282 281 273 277 289 283 277 291 276 268 258 248 240 238 237 236 235 232 231 231 232 233
216 239 208 244 237 234 233 196 211 217 234 242 252 260 258 263 271 275 263 266 271 272 275 276 278 284 289 293 291 289 281 269 258 251 246 241 239 237 236 234 233 233 233 233
226 243 200 238 239 217 234 233 231 231 226 218 234 247 266 271 264 259 266 260 260 266 271 274 277 281 285 288 286 279 275 272 262 256 251 246 242 239 238 236 234 234 234 236
215 235 221 253 251 232 239 237 225 229 238 229 247 262 261 258 270 280 267 266 272 273 274 277 279 282 280 276 273 272 267 266 262 258 252 249 244 240 238 237 235 234 233 235
223 230 260 234 236 250 282 229 212 192 244 234 230 245 257 265 281 277 273 270 273 274 274 277 278 277 274 276 274 271 267 264 261 257 254 251 247 241 238 236 234 234 234 233
211 218 228 227 240 241 231 257 200 123 248 249 214 238 252 229 236 261 254 264 259 252 257 265 261 266 282 280 274 267 265 266 265 263 259 254 249 246 242 239 236 234 235 234
191 213 227 238 259 258 250 238 144 190 243 213 202 222 241 214 232 257 255 240 261 262 268 270 272 271 266 264 257 258 262 264 255 254 253 249 246 243 239 235 234 234 233 231
244 234 227 231 244 250 132 72 209 248 193 189 206 226 226 235 234 246 268 271 262 270 275 260 240 235 241 244 248 239 231 231 219 218 220 222 224 228 227 226 227 228 226 228
251 224 271 234 242 160 330 300 305 292 286 283 242 237 240 239 239 242 253 260 247 230 214 176 155 138 122 110 95 97 103 98 105 118 130 148 168 186 205 206 207 208 221 217
233 245 213 286 268 238 235 238 265 258 251 254 259 242 235 239 233 222 201 162 148 140 131 124 122 120 116 111 107 102 102 105 105 102 100 102 117 145 175 192 211 223 226 225
255 131 214 244 264 290 272 253 238 249 253 244 232 218 209 196 176 179 166 149 143 142 137 133 130 126 121 120 121 119 113 111 106 106 113 129 138 142 155 175 195 206 218 231
209 241 232 255 228 246 279 277 273 243 235 224 209 194 178 177 170 171 166 159 159 155 149 150 145 137 126 127 134 135 133 129 126 120 131 129 133 142 159 184 196 211 220 229